www.pogodaiklimat.ru

АРХИВ ПОГОДЫ в Бостоне

Время (UTC), дата Ветер
(напр.,м/с)
 
Видим.   Явления Облачность Т
(С)
Тd
(С)
f
(%)
Тe
(С)
Тes
(С)
Комфортность

P
(гПа)

Po
(гПа)
Тmin
(С)
Tmax
(С)
R
(мм)
SD
(см)
13:05 19.08 СВ  16 км    8/8 600 м  +21.7  +16.7  73  +26  +26  душно    1016.1         
13:26 19.08 СВ  9
{11} 
16 км    5/5 660 м  +21.7  +15.6  68  +25  +25  комфорт    1016.1         
13:54 19.08 В  16 км    5/5 660 м
[верхняя] 
+22.0  +16.0  69  +26  +27  душно  1017.3  1016.4         
14:54 19.08 СВ  16 км    10/5 660 м
[верхняя] 
+22.2  +16.1  68  +26  +27  душно  1017.4  1016.8         
15:54 19.08 В  16 км    8/5 750 м
[верхняя] 
+22.2  +16.1  68  +26  +26  душно  1017.1  1016.4         
16:54 19.08 В  16 км    8/5 750 м
[верхняя] 
+22.0  +16.0  69  +26  +26  душно  1017.4  1016.8  +21.1       
17:32 19.08 СВ  16 км    10/8 570 м
[верхняя] 
+21.7  +16.1  70  +25  +26  комфорт    1017.1         
17:54 19.08 СВ  16 км    10/10 570 м  +21.7  +16.1  70  +25  +25  комфорт  1017.8  1017.1         
18:54 19.08 СВ  16 км    8/8 600 м
[верхняя] 
+22.0  +16.0  69  +26  +26  душно  1017.9  1017.1         
19:21 19.08 СВ  16 км    5/5 540 м
[верхняя] 
+21.1  +16.1  73  +24  +25  комфорт    1017.1         
19:54 19.08 СВ  16 км    5/5 660 м
[средняя] 
+21.0  +15.0  69  +24  +24  комфорт  1018.0  1017.4         
19:58 19.08 СВ  16 км    8/8 660 м  +21.1  +15.6  71  +24  +24  комфорт    1017.4         
20:54 19.08 СВ  16 км    8/8 630 м  +21.1  +15.6  71  +24  +24  комфорт  1018.3  1017.4         
21:54 19.08 СВ  16 км    8/8 660 м
[верхняя] 
+21.0  +16.0  73  +24  +24  комфорт  1018.5  1017.8         
22:18 19.08 СВ  16 км    8/5 660 м
[средняя верхняя] 
+20.6  +16.1  75  +23  +23  комфорт    1017.8         
22:54 19.08 СВ  16 км    10/8 600 м
[верхняя] 
+21.0  +16.0  73  +24  +24  комфорт  1018.9  1018.1  +20.6  +22.8     
23:37 19.08 СВ  16 км    10/10 570 м  +20.6  +16.1  75  +23  +23  комфорт    1018.5         
23:54 19.08 СВ  14 км    10/10 570 м  +20.6  +16.1  75  +23  +23  комфорт    1018.5         
00:54 20.08 СВ  16 км    10/10 540 м  +21.0  +17.0  78  +25  +25  комфорт  1019.4  1018.5         
01:21 20.08 СВ  5 км  слабый дождь, дымка  10/10 270 м  +19.4  +17.8  90  +21  +21  комфорт    1018.5         
01:54 20.08 СВ  16 км    10/10 240 м  +19.4  +17.8  90  +21  +21  комфорт    1018.5      0.3   
02:35 20.08 СВ  11 км  слабый дождь  10/10 330 м  +20.0  +18.0  88  +23  +23  комфорт    1018.5         
02:54 20.08 СВ  16 км    10/10 300 м  +20.0  +18.3  90  +23  +23  комфорт    1018.5         
03:37 20.08 СВ  16 км    10/10 300 м  +20.0  +18.3  90  +23  +23  комфорт    1018.8         
03:54 20.08 СВ  16 км    10/10 300 м  +20.0  +18.0  88  +23  +23  комфорт  1019.4  1018.5         
04:01 20.08 СВ  16 км    10/10 840 м  +20.0  +17.8  87  +23  +23  комфорт    1018.8         
04:54 20.08 С  16 км    10/10 390 м  +20.0  +18.0  88  +23  +23  комфорт  1019.4  1018.5  +19.4  +21.1     
05:15 20.08 С  16 км    10/10 930 м  +20.0  +17.8  87  +23  +23  комфорт    1018.5         
05:54 20.08 С  16 км    10/10 510 м  +20.0  +17.8  87  +23  +23  комфорт  1019.6  1018.8         
06:54 20.08 С  16 км    10/10 570 м  +20.0  +17.2  84  +23  +23  комфорт  1019.6  1018.8         
07:54 20.08 С  16 км    8/8 570 м
[средняя] 
+20.0  +17.0  83  +23  +23  комфорт  1019.5  1018.8         
08:54 20.08 С  16 км    8/8 570 м
[средняя] 
+19.0  +17.0  88  +20  +20    1020.2  1019.5         
09:54 20.08 С  16 км    10/10 0 м  +20.0  +17.0  83  +22  +22  комфорт  1020.9  1020.2         
10:22 20.08 С  16 км    10/10 360 м  +20.0  +17.2  84  +22  +22  комфорт    1020.5         
10:54 20.08 С  16 км    10/10 360 м  +20.0  +17.0  83  +23  +23  комфорт  1021.5  1020.8  +19.4  +20.0     
11:10 20.08 С  16 км    10/10 420 м  +20.0  +16.7  81  +23  +23  комфорт    1020.8         
11:54 20.08 СВ  16 км    10/10 420 м  +20.6  +16.7  78  +24  +24  комфорт  1021.7  1020.8         
12:54 20.08 СВ  16 км    8/5 570 м
[средняя] 
+22.2  +16.7  71  +27  +27  душно  1022.2  1021.5         
13:54 20.08 СВ  16 км    2/2 540 м
[средняя] 
+23.0  +17.0  69  +28  +29  душно  1022.0  1021.2         
14:54 20.08 СВ  8
{11} 
16 км    2/2 600 м
[средняя] 
+22.8  +16.7  68  +27  +29  душно  1021.7  1020.8         
15:54 20.08 В  16 км    5/2 750 м
[средняя] 
+22.8  +17.2  71  +28  +30  душно  1021.4  1020.5         
16:54 20.08 В  16 км    5/2 750 м
[средняя] 
+23.0  +17.0  69  +28  +30  душно  1021.2  1020.5  +20.0  +23.3     
17:54 20.08 В  16 км    5/5 780 м
[средняя] 
+23.0  +17.0  69  +28  +30  душно  1021.3  1020.5         
18:54 20.08 В  16 км    5/5 780 м
[средняя] 
+22.0  +18.0  78  +27  +29  душно  1021.6  1020.8         
19:54 20.08 В  16 км    5/5 750 м
[средняя] 
+22.0  +17.0  73  +26  +28  душно  1021.5  1020.8         
20:54 20.08 В  16 км    2/2 810 м
[средняя] 
+22.0  +17.0  73  +26  +28  душно  1021.3  1020.5         
21:54 20.08 В  16 км    2/2 900 м
[средняя] 
+21.0  +16.0  73  +24  +25  комфорт  1021.1  1020.5         
22:54 20.08 В  16 км    2/2 600 м
[средняя] 
+20.0  +17.0  83  +23  +23  комфорт  1021.3  1020.5  +20.0       

 

Местоположение метеостанции Logan International Airport: широта 42.3606 долгота -71.0106 высота над уровнем моря 6 м.

В архиве по умолчанию представлена погода в Бостоне за последние 1-2 суток. Обновление информации о фактической погоде в базе происходит ежечасно! Архивные данные за месяц целиком и за предыдущие месяцы Вы можете получить, выбрав интересующий диапазон дат из раскрывающегося списка и нажав кнопку "Ввод!".

Внимание! Архив погоды МЕТАР в базе сайта в настоящее время начинается c 1 января 2013 г. Нет смысла пытаться выбрать более раннюю дату.

Внимание! Время в таблицах - всемирное. Для получения местного времени необходимо прибавить поправку, которая в Бостоне равна -5 ч.

Ветер - указаны скорость ветра в м/с и направление, откуда дует ветер: С - северный, СВ - северо-восточный, В - восточный, ЮВ - юго-восточный, Ю - южный, ЮЗ - юго-западный, З - западный, СЗ - северо-западный.
Видимость - горизонтальная дальность видимости в метрах или километрах. При видимости от 1 до 10 км при отсутствии осадков обычно наблюдается дымка, при ухудшении видимости до 1 км и менее - туман. В сухую погоду видимость может ухудшаться дымом, пылью или мглою.
Атмосферные явления - указаны явления, наблюдавшиеся в указанный момент времени.
Облачность - указаны через наклонную черту верхняя и нижняя облачность в баллах и высота нижней границы облаков в метрах. Внимание: облачность, как и прочие метеорологические величины в США измеряются автоматическими метеостанциями. Указанные значения в баллах носят условный характер и показывают процент времени, в течение которого, в среднем, лазерный луч высотомера отражался от облаков обратно.
T - Температура воздуха - температура, измеренная на высоте 2 м над землей.
Td - Температура точки росы - температура, при понижении до которой содержащийся в воздухе водяной пар достигнет насыщения.
f - Относительная влажность воздуха - влажноcть воздуха, измеренная на высоте 2 м над землей.
Te - Эффективная температура - температура, которую ощущает одетый по сезону человек в тени. Характеристика душности погоды. При расчете учитывается влияние влажности воздуха и скорости ветра на теплоощущения человека.
Tes - Эффективная температура на солнце - температура, которую ощущает человек, с поправкой на солнечный нагрев. Характеристика знойности погоды. Зависит от высоты солнца над горизонтом, облачности и скорости ветра. Ночью, в пасмурную погоду, а также при ветре 12 м/с и более поправка равна нулю.
P - Атмосферное давление - приведенное к уровню моря атмосферное давление.
Po - Атмосферное давление - измеренное на уровне метеостанции атмосферное давление.
Tmin - Минимальная температура - минимум температуры воздуха на высоте 2 м над землей.
Tmax - Максимальная температура - максимум температуры воздуха на высоте 2 м над землей.
R - Количество осадков - Количество выпавших осадков за 3 или 6 часов, мм.
SD - Снежный покров - Высота снежного покрова, см.